Regional Weather Roundup
Issued by NWS State College, PA

Current Version | Previous Version | Text Only | Print | Product List | Glossary On
Versions: 1 2 3 4 5 6 7 8 9 10 11 12 13 14 15 16 17 18 19 20 21 22 23 24 25 26 27 28 29 30 31 32 33 34 35 36 37 38 39 40 41 42 43 44 45 46 47 48 49 50
000
ASUS41 KCTP 212010
RWRCTP

REGIONAL WEATHER ROUNDUP
NATIONAL WEATHER SERVICE STATE COLLEGE PA
400 PM EDT SAT OCT 21 2017

Note: "fair" indicates few or no clouds below 12,000 feet with no
significant weather and/or obstructions to visibility.

* = STATION THAT DOES NOT REPORT PRECIPITATION /E.G. RAIN...SNOW...ETC/
    THUNDER OR FOG.

PAZ002>004-007>009-013>016-020>023-029>032-212100-
WESTERN PENNSYLVANIA

CITY           SKY/WX    TMP DP  RH WIND       PRES   REMARKS
ERIE           MOSUNNY   74  49  41 S7        30.23F
MEADVILLE      CLOUDY    71  48  43 S3        30.26F
FRANKLIN*      CLOUDY    70  50  49 SE6       30.29S
NEW CASTLE     FAIR      73  50  44 CALM      30.26F
BEAVER COUNTY  NOT AVBL
BUTLER*        CLOUDY    73  51  46 S3        30.27F
PITTSBURGH INT CLOUDY    75  51  43 SE6       30.26S
PITTSBURGH     CLOUDY    74  49  41 S6        30.26S
INDIANA*       SUNNY     75  45  33 CALM      30.30F
LATROBE        PTSUNNY   75  48  38 CALM      30.27F
WASHINGTON CO* CLOUDY    75  51  43 S7        30.28S
$$

PAZ004>006-010>012-017>019-024>028-033>037-041-042-045-046-049>053-212100-
CENTRAL PENNSYLVANIA

CITY           SKY/WX    TMP DP  RH WIND       PRES   REMARKS
BRADFORD       CLOUDY    71  39  31 S6        30.30F
DUBOIS         CLOUDY    71  42  35 VRB3      30.29F
CLEARFIELD     CLOUDY    72  41  32 S5        30.31S
JOHNSTOWN      CLOUDY    70  41  34 S9        30.32R
ALTOONA        MOSUNNY   74  40  29 SE8       30.32S
STATE COLLEGE  SUNNY     70  41  35 CALM      30.32S
WILLIAMSPORT   CLOUDY    71  46  40 S5        30.30R
SELINSGROVE    CLOUDY    72  48  42 CALM      30.32S
FT INDIANTOWN  CLOUDY    73  42  33 CALM      30.31S
CAPITAL CITY   CLOUDY    75  43  31 E3        30.31S
HARRISBURG     CLOUDY    71  52  50 CALM      30.30S
YORK           CLOUDY    75  42  30 CALM      30.31S
$$

PAZ038>040-043-044-047-048-054-055-060>062-067>071-212100-
EASTERN PENNSYLVANIA

CITY           SKY/WX    TMP DP  RH WIND       PRES   REMARKS
SCRANTON       CLOUDY    74  37  26 SW5       30.32S
MOUNT POCONO   CLOUDY    71  31  22 SW7       30.34S
ALLENTOWN      CLOUDY    77  46  33 CALM      30.31S
QUAKERTOWN*    CLOUDY    75  41  29 CALM      30.32S
READING        CLOUDY    76  46  34 CALM      30.30S
LANCASTER      CLOUDY    76  45  33 CALM      30.31S
COATESVILLE    CLEAR     73  41  31 SE5       30.34R
POTTSTOWN      SUNNY     74  41  30 CALM      30.33S
BLUE BELL      SUNNY     73  41  31 S3        30.33S
DOYLESTOWN     CLOUDY    75  39  27 S5        30.31S
WILLOW GROVE   NOT AVBL
NORTH PHILA    SUNNY     78  41  26 VRB3      30.33S
PHILADELPHIA   PTSUNNY   78  40  25 CALM      30.31S
$$




USA.gov is the U.S. government's official web portal to all federal, state and local government web resources and services.